Regional Weather Roundup
Issued by NWS Little Rock, AR

Home | Current Version | Previous Version | Text Only | Print | Product List | Glossary Off
Versions: 1 2 3 4 5 6 7 8 9 10 11 12 13 14 15 16 17 18 19 20 21 22 23 24 25 26 27 28 29 30 31 32 33 34 35 36 37 38 39 40 41 42 43 44 45 46 47 48 49 50

000
ASUS44 KLZK 080012
RWRLZK

WEATHER ROUNDUP FOR ARKANSAS
NATIONAL WEATHER SERVICE LITTLE ROCK AR
600 PM CST WED DEC 07 2016

NOTE: "FAIR" INDICATES FEW OR NO CLOUDS BELOW 12,000 FEET WITH NO
SIGNIFICANT WEATHER AND/OR OBSTRUCTIONS TO VISIBILITY.

ARZ001-003-010-029-080100-
NORTHWEST ARKANSAS

CITY           SKY/WX    TMP DP  RH WIND       PRES   REMARKS
FAYETTEVILLE   CLOUDY    30  28  92 CALM      30.27R
6HR MIN TEMP:  30; 6HR MAX TEMP:  35;

FORT SMITH     CLOUDY    37  34  89 NE3       30.27R FOG
6HR MIN TEMP:  36; 6HR MAX TEMP:  41; 6HR PCP: TRACE;

HARRISON       CLOUDY    34  21  59 N6        30.25R WCI  29
6HR MIN TEMP:  34; 6HR MAX TEMP:  36;

BENTONVILLE    CLOUDY    36  16  44 N14       30.27R
6HR MIN TEMP:  34; 6HR MAX TEMP:  36;

ROGERS         CLOUDY    34  16  47 N14       30.28R WCI  25
6HR MIN TEMP:  33; 6HR MAX TEMP:  35; 6HR PCP: TRACE;

SILOAM SPGS    CLOUDY    32  27  80 CALM      30.28R
6HR MIN TEMP:  30; 6HR MAX TEMP:  36;

HIGHFILL       CLOUDY    35  19  52 N14       30.26R WCI  26
6HR MIN TEMP:  33; 6HR MAX TEMP:  36; 6HR PCP: TRACE;

SPRINGDALE     CLOUDY    34  23  64 NE3       30.28R
$$

ARZ004-005-016-080100-
NORTH CENTRAL ARKANSAS

CITY           SKY/WX    TMP DP  RH WIND       PRES   REMARKS
BATESVILLE     CLOUDY    39  21  48 CALM      30.26R
6HR MIN TEMP:  39; 6HR MAX TEMP:  41;

FLIPPIN        CLOUDY    37  16  41 N8        30.24R
6HR MIN TEMP:  36; 6HR MAX TEMP:  37;

MTN HOME       CLOUDY    36  21  54 CALM      30.25R
6HR MIN TEMP:  35; 6HR MAX TEMP:  37;

$$

ARZ040-041-080100-
WEST CENTRAL ARKANSAS

CITY           SKY/WX    TMP DP  RH WIND       PRES   REMARKS
MENA           CLOUDY    37  37 100 NE5       30.21R
MOUNT IDA      CLOUDY    38  36  92 VRB3      30.19R FOG
6HR MIN TEMP:  38; 6HR MAX TEMP:  42;

$$

ARZ009-017-025-026-028-080100-
NORTHEAST ARKANSAS

CITY           SKY/WX    TMP DP  RH WIND       PRES   REMARKS
CORNING        CLOUDY    39  30  70 N5        30.26R
JONESBORO      CLOUDY    42  29  59 N5        30.24R
6HR MIN TEMP:  41; 6HR MAX TEMP:  43;

NEWPORT        CLOUDY    40  30  67 N7        30.25
6HR MIN TEMP:  40; 6HR MAX TEMP:  42;

WALNUT RIDGE   CLOUDY    39  27  60 N3        30.25R
6HR MIN TEMP:  39; 6HR MAX TEMP:  41;

BLYTHEVILLE    CLOUDY    42  32  67 N10       30.24R
6HR MIN TEMP:  42; 6HR MAX TEMP:  49;

$$

ARZ022-023-033-042-044-080100-
CENTRAL ARKANSAS

CITY           SKY/WX    TMP DP  RH WIND       PRES   REMARKS
LITTLE ROCK    CLOUDY    41  33  73 NE7       30.24R
6HR MIN TEMP:  40; 6HR MAX TEMP:  41;

N LITTLE ROCK    N/A     39  31  72 NE5       30.26R
6HR MIN TEMP:  39; 6HR MAX TEMP:  41;

JACKSONVILLE   CLOUDY    41  31  67 N5        30.23R
6HR MIN TEMP:  41; 6HR MAX TEMP:  42;

SEARCY         CLOUDY    41  30  65 N6        30.26R
6HR MIN TEMP:  41; 6HR MAX TEMP:  42;

HOT SPRINGS    CLOUDY    40  34  79 NE7       30.23R
6HR MIN TEMP:  40; 6HR MAX TEMP:  42;

RUSSELLVILLE   CLOUDY    36  34  92 N6        30.25R FOG
6HR MIN TEMP:  36; 6HR MAX TEMP:  40;

CLINTON        CLOUDY    37  27  65 CALM      30.26R
$$

ARZ036-080100-
EAST ARKANSAS

CITY           SKY/WX    TMP DP  RH WIND       PRES   REMARKS
WEST MEMPHIS   CLOUDY    43  33  68 N6        30.21R
6HR MIN TEMP:  43; 6HR MAX TEMP:  46;

$$

ARZ050-053-066-070-073-080100-
SOUTHWEST ARKANSAS

CITY           SKY/WX    TMP DP  RH WIND       PRES   REMARKS
ARKADELPHIA    CLOUDY    42  37  82 N10       30.23R
6HR MIN TEMP:  41; 6HR MAX TEMP:  43;

CAMDEN         MIX PCPN  45  39  81 NE6       30.21R
TEXARKANA      CLOUDY    44  41  89 E7        30.17R
6HR MIN TEMP:  44; 6HR MAX TEMP:  48;

EL DORADO      CLOUDY    46  43  89 NE7       30.18R
6HR MIN TEMP:  46; 6HR MAX TEMP:  49;

DE QUEEN       CLOUDY    42  42 100 NE6       30.20R FOG
6HR MIN TEMP:  42; 6HR MAX TEMP:  47;

$$

ARZ056-057-069-080100-
SOUTHEAST ARKANSAS

CITY           SKY/WX    TMP DP  RH WIND       PRES   REMARKS
PINE BLUFF     CLOUDY    43  37  79 N9        30.21R
6HR MIN TEMP:  42; 6HR MAX TEMP:  45;

STUTTGART      CLOUDY    43  30  61 N9        30.23R
6HR MIN TEMP:  43; 6HR MAX TEMP:  45;

MONTICELLO     CLOUDY    46  40  79 N5        30.19R
6HR MIN TEMP:  46; 6HR MAX TEMP:  48;


$$





USA.gov is the U.S. government's official web portal to all federal, state and local government web resources and services.